Location: Aragoneses
(41.0275°N, 4.3847°W)
Time: 21:51:52
(UTC+00:00)

Cosmos 2084 Rocket - Pass Details

Date: 11 December 2025
Orbit: 545 x 568 km, 62.8° (Epoch: 12 January)

Event Time Altitude Azimuth Distance (km) Brightness Sun altitude
Rises 17:21:00 0° 329° (NNW) 2,770 7.0 -6.1°
Reaches altitude 10° 17:23:19 10° 336° (NNW) 1,872 6.0 -6.5°
Maximum altitude 17:27:22 44° 49° (NE) 799 3.7 -7.2°
Drops below altitude 10° 17:31:23 10° 122° (ESE) 1,864 5.7 -7.9°
Sets 17:33:41 0° 129° (SE) 2,757 6.6 -8.3°
